Reno - Stead, NV

3:27 AM PDT on September 26, 2017 (GMT -0700)
Reno - Stead

Weather History for KRTS - April, 2014

Change the Weather History Date:

Saturday, April 19, 2014

  Actual Average (KRNO) Record (KRNO)
Temperature  
Mean Temperature 55 °F -  
Max Temperature 71 °F 61 °F 82 °F (1980)
Min Temperature 39 °F 32 °F 20 °F (1955)
Degree Days  
Heating Degree Days 10    
Growing Degree Days 5 (Base 50)    
Moisture  
Dew Point 26 °F    
Average Humidity 39    
Maximum Humidity 87    
Minimum Humidity 13    
Precipitation  
Precipitation 0.00 in - - ()
Sea Level Pressure  
Sea Level Pressure 30.05 in    
Wind  
Wind Speed 10 mph (WNW)    
Max Wind Speed 24 mph    
Max Gust Speed 33 mph    
Visibility 10 miles    
Events      
Averages and records for this station are not official NWS values.
T = Trace of Precipitation, MM = Missing Value Source: NWS Daily Summary

Daily Weather History Graph

Daily Weather History Graph

Search for Another Location

Airport or City:

Trip Planner

Search our weather history database for the weather conditions in past years. The results will help you decide how hot, cold, wet, or windy it might be!

Date:

Astronomy

Apr. 19, 2014 Rise Set
Actual Time 6:16 AM PDT 7:41 PM PDT
Civil Twilight 5:47 AM PDT 8:09 PM PDT
Nautical Twilight 5:14 AM PDT 8:43 PM PDT
Astronomical Twilight 4:38 AM PDT 9:19 PM PDT
Moon No Moon Rise 9:40 AM PDT (4/19)
Length of Visible Light 14h 21m
Length of Day
13h 25m
Waning Gibbous, 77% of the Moon is Illuminated
Apr 19
Waning Gibbous
Apr 22
Last Quarter
Apr 28
New
May 6
First Quarter
May 14
Full

Hourly Weather History & Observations

Time (PDT) Temp. Windchill Dew Point Humidity Pressure Visibility Wind Dir Wind Speed Gust Speed Precip Events Conditions
12:15 AM 48.2 °F - 37.4 °F 66% 30.00 in 10.0 mi WNW 6.9 mph - N/A   Clear
12:35 AM 48.2 °F - 39.2 °F 71% 30.00 in 10.0 mi North 8.1 mph - N/A   Clear
12:55 AM 50.0 °F - 39.2 °F 66% 30.00 in 10.0 mi NNW 9.2 mph - N/A   Clear
1:15 AM 48.2 °F - 39.2 °F 71% 29.99 in 10.0 mi NNW 5.8 mph - N/A   Clear
1:35 AM 48.2 °F - 37.4 °F 66% 29.99 in 10.0 mi NNW 5.8 mph - N/A   Clear
1:55 AM 46.4 °F 43.5 °F 37.4 °F 71% 29.99 in 10.0 mi NNW 5.8 mph - N/A   Clear
2:15 AM 46.4 °F 42.4 °F 37.4 °F 71% 29.99 in 10.0 mi NW 8.1 mph - N/A   Scattered Clouds
2:35 AM 46.4 °F 43.5 °F 37.4 °F 71% 29.99 in 10.0 mi NNW 5.8 mph - N/A   Mostly Cloudy
2:55 AM 46.4 °F 43.5 °F 37.4 °F 71% 29.99 in 10.0 mi North 5.8 mph - N/A   Scattered Clouds
3:15 AM 44.6 °F 40.2 °F 35.6 °F 71% 29.99 in 10.0 mi NNW 8.1 mph - N/A   Clear
3:35 AM 44.6 °F 41.4 °F 35.6 °F 71% 29.99 in 10.0 mi NW 5.8 mph - N/A   Clear
3:55 AM 44.6 °F 43.1 °F 37.4 °F 76% 29.99 in 10.0 mi NW 3.5 mph - N/A   Clear
4:15 AM 42.8 °F 37.5 °F 35.6 °F 76% 30.00 in 10.0 mi NNW 9.2 mph - N/A   Clear
4:35 AM 41.0 °F 35.8 °F 35.6 °F 81% 30.00 in 10.0 mi North 8.1 mph - N/A   Clear
4:55 AM 41.0 °F 35.8 °F 35.6 °F 81% 30.00 in 10.0 mi North 8.1 mph - N/A   Clear
5:15 AM 41.0 °F 35.2 °F 35.6 °F 81% 30.00 in 10.0 mi NNW 9.2 mph - N/A   Clear
5:35 AM 39.2 °F 33.6 °F 35.6 °F 87% 30.00 in 10.0 mi NW 8.1 mph - N/A   Clear
5:55 AM 41.0 °F 35.8 °F 35.6 °F 81% 30.01 in 10.0 mi NNW 8.1 mph - N/A   Clear
6:15 AM 39.2 °F 33.6 °F 33.8 °F 81% 30.01 in 10.0 mi NNW 8.1 mph - N/A   Clear
6:35 AM 41.0 °F 34.7 °F 35.6 °F 81% 30.02 in 10.0 mi North 10.4 mph - N/A   Clear
6:55 AM 39.2 °F 33.0 °F 35.6 °F 87% 30.02 in 10.0 mi North 9.2 mph - N/A   Clear
7:15 AM 42.8 °F 37.5 °F 37.4 °F 81% 30.03 in 10.0 mi North 9.2 mph - N/A   Clear
7:35 AM 48.2 °F - 37.4 °F 66% 30.04 in 10.0 mi NNW 8.1 mph - N/A   Clear
7:55 AM 50.0 °F - 37.4 °F 62% 30.04 in 10.0 mi NW 9.2 mph - N/A   Clear
8:15 AM 53.6 °F - 37.4 °F 54% 30.04 in 10.0 mi West 6.9 mph - N/A   Clear
8:35 AM 55.4 °F - 35.6 °F 47% 30.05 in 10.0 mi WSW 3.5 mph - N/A   Clear
8:55 AM 57.2 °F - 35.6 °F 44% 30.05 in 10.0 mi West 5.8 mph - N/A   Clear
9:15 AM 59.0 °F - 35.6 °F 42% 30.04 in 10.0 mi Calm Calm - N/A   Clear
9:35 AM 59.0 °F - 28.4 °F 31% 30.04 in 10.0 mi SSW 9.2 mph 24.2 mph N/A   Clear
9:55 AM 60.8 °F - 28.4 °F 29% 30.04 in 10.0 mi WSW 15.0 mph 21.9 mph N/A   Clear
10:15 AM 62.6 °F - 23.0 °F 22% 30.05 in 10.0 mi West 16.1 mph 23.0 mph N/A   Clear
10:35 AM 62.6 °F - 24.8 °F 24% 30.04 in 10.0 mi WSW 18.4 mph 24.2 mph N/A   Clear
10:55 AM 62.6 °F - 24.8 °F 24% 30.05 in 10.0 mi SW 15.0 mph 20.7 mph N/A   Clear
11:15 AM 62.6 °F - 24.8 °F 24% 30.05 in 10.0 mi SSW 8.1 mph 17.3 mph N/A   Clear
11:35 AM 64.4 °F - 24.8 °F 22% 30.04 in 10.0 mi West 11.5 mph 17.3 mph N/A   Clear
11:55 AM 68.0 °F - 17.6 °F 15% 30.03 in 10.0 mi WSW 16.1 mph 24.2 mph N/A   Clear
12:15 PM 68.0 °F - 17.6 °F 15% 30.03 in 10.0 mi WSW 21.9 mph 27.6 mph N/A   Clear
12:35 PM 68.0 °F - 17.6 °F 15% 30.03 in 10.0 mi WSW 20.7 mph 26.5 mph N/A   Clear
12:55 PM 68.0 °F - 17.6 °F 15% 30.03 in 10.0 mi WSW 20.7 mph 31.1 mph N/A   Clear
1:15 PM 68.0 °F - 17.6 °F 15% 30.03 in 10.0 mi WSW 18.4 mph 25.3 mph N/A   Clear
1:35 PM 69.8 °F - 17.6 °F 14% 30.03 in 10.0 mi SW 18.4 mph 26.5 mph N/A   Clear
1:55 PM 71.6 °F - 17.6 °F 13% 30.03 in 10.0 mi SW 18.4 mph 24.2 mph N/A   Clear
2:15 PM 69.8 °F - 21.2 °F 16% 30.02 in 10.0 mi SW 24.2 mph 28.8 mph N/A   Clear
2:35 PM 71.6 °F - 24.8 °F 17% 30.02 in 10.0 mi SW 20.7 mph 29.9 mph N/A   Clear
2:55 PM 68.0 °F - 24.8 °F 20% 30.02 in 10.0 mi SW 20.7 mph 29.9 mph N/A   Clear
3:15 PM 69.8 °F - 24.8 °F 18% 30.02 in 10.0 mi WSW 18.4 mph 26.5 mph N/A   Clear
3:35 PM 68.0 °F - 23.0 °F 18% 30.02 in 10.0 mi WSW 20.7 mph 31.1 mph N/A   Clear
3:55 PM 68.0 °F - 21.2 °F 17% 30.02 in 10.0 mi WSW 18.4 mph 33.4 mph N/A   Clear
4:15 PM 68.0 °F - 21.2 °F 17% 30.02 in 10.0 mi SW 23.0 mph 33.4 mph N/A   Clear
4:35 PM 68.0 °F - 21.2 °F 17% 30.03 in 10.0 mi SW 21.9 mph 32.2 mph N/A   Clear
4:55 PM 68.0 °F - 19.4 °F 16% 30.03 in 10.0 mi WSW 21.9 mph 28.8 mph N/A   Clear
5:15 PM 66.2 °F - 19.4 °F 17% 30.04 in 10.0 mi WSW 18.4 mph 33.4 mph N/A   Clear
5:35 PM 66.2 °F - 19.4 °F 17% 30.05 in 10.0 mi West 17.3 mph 24.2 mph N/A   Clear
5:55 PM 64.4 °F - 19.4 °F 18% 30.06 in 10.0 mi West 16.1 mph 21.9 mph N/A   Clear
6:15 PM 62.6 °F - 19.4 °F 19% 30.06 in 10.0 mi West 20.7 mph 26.5 mph N/A   Clear
6:35 PM 62.6 °F - 19.4 °F 19% 30.07 in 10.0 mi WNW 15.0 mph 24.2 mph N/A   Clear
6:55 PM 60.8 °F - 19.4 °F 20% 30.08 in 10.0 mi West 13.8 mph - N/A   Clear
7:15 PM 59.0 °F - 19.4 °F 22% 30.08 in 10.0 mi West 13.8 mph - N/A   Clear
7:35 PM 57.2 °F - 15.8 °F 20% 30.09 in 10.0 mi West 12.7 mph 17.3 mph N/A   Clear
7:55 PM 55.4 °F - 15.8 °F 21% 30.10 in 10.0 mi West 10.4 mph - N/A   Clear
8:15 PM 55.4 °F - 14.0 °F 20% 30.10 in 10.0 mi West 11.5 mph - N/A   Clear
8:35 PM 55.4 °F - 10.4 °F 17% 30.11 in 10.0 mi West 12.7 mph - N/A   Clear
8:55 PM 51.8 °F - 12.2 °F 21% 30.13 in 10.0 mi NW 6.9 mph - N/A   Clear
9:15 PM 53.6 °F - 15.8 °F 22% 30.14 in 10.0 mi North 8.1 mph 16.1 mph N/A   Clear
9:35 PM 50.0 °F - 14.0 °F 24% 30.15 in 10.0 mi NNW 8.1 mph - N/A   Clear
9:55 PM 51.8 °F - 14.0 °F 22% 30.16 in 10.0 mi North 9.2 mph 17.3 mph N/A   Clear
10:15 PM 50.0 °F - 12.2 °F 22% 30.17 in 10.0 mi NNW 5.8 mph - N/A   Clear
10:35 PM 50.0 °F - 10.4 °F 20% 30.18 in 10.0 mi WNW 9.2 mph - N/A   Clear
10:55 PM 48.2 °F - 10.4 °F 22% 30.18 in 10.0 mi WNW 9.2 mph - N/A   Clear
11:15 PM 48.2 °F - 8.6 °F 20% 30.19 in 10.0 mi NW 9.2 mph - N/A   Clear
11:35 PM 46.4 °F 40.7 °F 8.6 °F 22% 30.18 in 10.0 mi WNW 12.7 mph - N/A   Clear
11:55 PM 46.4 °F 43.5 °F 8.6 °F 22% 30.19 in 10.0 mi NW 5.8 mph - N/A   Clear